Location: Columbia
(38.9520°N, 92.3340°W)
Time: 16:37:02
(UTC-06:00)

FENGYUN 3A - Visible Passes

Search period start: 22 February 2018 00:00
Search period end: 04 March 2018 00:00
Orbit: 820 x 832 km, 98.4° (Epoch: 22 February)

Date Brightness Start Highest point End Pass type
(mag) Time Alt. Az. Time Alt. Az. Time Alt. Az.
22 Feb 6.7 06:12:36 10° NE 06:16:42 21° E 06:20:45 10° SE visible
22 Feb 5.6 19:14:13 10° SSW 19:18:59 32° W 19:23:48 10° NNW visible
23 Feb 7.0 05:54:47 10° ENE 05:57:34 14° E 06:00:19 10° ESE visible
23 Feb 4.8 18:54:47 10° S 18:59:58 48° W 19:05:12 10° NNW visible
24 Feb 4.0 18:35:37 10° S 18:40:59 72° WSW 18:46:25 10° NNW visible
25 Feb 3.7 18:16:41 10° SSE 18:22:04 78° ENE 18:27:30 10° N visible
25 Feb 6.9 20:00:48 10° WSW 20:02:52 12° W 20:04:56 10° WNW visible
26 Feb 6.4 19:40:00 10° SW 19:43:42 19° W 19:47:27 10° NW visible
27 Feb 5.8 19:20:02 10° SSW 19:24:36 28° W 19:29:14 10° NW visible
28 Feb 6.9 05:59:54 10° NE 06:03:12 16° E 06:06:29 10° SE visible
28 Feb 5.1 19:00:29 10° SSW 19:05:34 42° W 19:10:41 10° NNW visible
01 Mar 7.5 05:43:28 10° E 05:44:02 10° E 05:44:36 10° E visible
01 Mar 4.3 18:41:14 10° S 18:46:34 63° W 18:51:57 10° NNW visible
02 Mar 3.7 18:22:14 10° SSE 18:27:38 88° ENE 18:33:05 10° NNW visible
02 Mar 7.0 20:07:50 10° W 20:08:31 10° W 20:09:13 10° W visible
03 Mar 6.6 19:46:02 10° SW 19:49:21 16° W 19:52:40 10° NW visible
